TimeEST,TemperatureF,Dew PointF,Humidity,Sea Level PressureIn,VisibilityMPH,Wind Direction,Wind SpeedMPH,Gust SpeedMPH,PrecipitationIn,Events,Conditions,WindDirDegrees,DateUTC
12:14 AM,23.5,16.7,75,30.11,10.0,SSW,9.2,-,N/A,,Overcast,210,2013-01-03 05:14:00
12:35 AM,22.6,15.8,75,30.11,10.0,SSW,6.9,-,N/A,,Overcast,210,2013-01-03 05:35:00
12:54 AM,21.6,15.3,77,30.11,10.0,SSW,8.1,-,N/A,,Scattered Clouds,210,2013-01-03 05:54:00
1:14 AM,20.7,14.7,78,30.10,10.0,SSW,6.9,-,N/A,,Clear,200,2013-01-03 06:14:00
1:35 AM,20.1,14.5,79,30.10,10.0,SSW,5.8,-,N/A,,Clear,200,2013-01-03 06:35:00
1:54 AM,19.6,14.2,80,30.10,10.0,South,8.1,-,N/A,,Clear,190,2013-01-03 06:54:00
2:14 AM,19.4,13.5,78,30.10,10.0,SSW,5.8,-,N/A,,Clear,200,2013-01-03 07:14:00
2:35 AM,18.5,12.9,79,30.10,10.0,SSW,5.8,-,N/A,,Clear,200,2013-01-03 07:35:00
2:54 AM,18.1,12.0,77,30.10,10.0,SSW,5.8,-,N/A,,Clear,200,2013-01-03 07:54:00
3:14 AM,17.4,10.6,75,30.10,10.0,South,5.8,-,N/A,,Clear,190,2013-01-03 08:14:00
3:34 AM,16.9,9.1,72,30.09,10.0,SSW,4.6,-,N/A,,Clear,210,2013-01-03 08:34:00
3:54 AM,16.3,8.1,70,30.08,10.0,SSW,4.6,-,N/A,,Clear,210,2013-01-03 08:54:00
4:15 AM,15.8,7.3,69,30.08,10.0,SSW,3.5,-,N/A,,Scattered Clouds,210,2013-01-03 09:15:00
4:34 AM,15.8,7.5,70,30.07,10.0,SSW,5.8,-,N/A,,Mostly Cloudy,200,2013-01-03 09:34:00
4:54 AM,16.5,6.6,65,30.06,10.0,SSW,8.1,-,N/A,,Overcast,210,2013-01-03 09:54:00
5:15 AM,16.7,6.3,64,30.06,10.0,SSW,8.1,-,N/A,,Overcast,210,2013-01-03 10:15:00
5:34 AM,16.7,5.9,63,30.05,10.0,SSW,6.9,-,N/A,,Overcast,210,2013-01-03 10:34:00
5:54 AM,17.2,5.7,61,30.05,10.0,SSW,8.1,-,N/A,,Overcast,200,2013-01-03 10:54:00
6:14 AM,17.2,5.7,61,30.05,10.0,SSW,6.9,-,N/A,,Overcast,200,2013-01-03 11:14:00
6:34 AM,17.2,5.9,61,30.05,10.0,SW,5.8,-,N/A,,Overcast,220,2013-01-03 11:34:00
6:55 AM,17.4,6.1,61,30.05,10.0,SSW,5.8,-,N/A,,Overcast,210,2013-01-03 11:55:00
7:14 AM,17.6,6.1,61,30.04,10.0,SSW,5.8,-,N/A,,Overcast,210,2013-01-03 12:14:00
7:34 AM,17.6,6.6,62,30.04,10.0,SSW,6.9,-,N/A,,Overcast,200,2013-01-03 12:34:00
7:55 AM,18.0,7.2,63,30.04,10.0,SSW,5.8,-,N/A,,Overcast,210,2013-01-03 12:55:00
8:34 AM,18.5,8.4,65,30.04,10.0,SSW,8.1,-,N/A,,Overcast,210,2013-01-03 13:34:00
8:55 AM,19.0,9.3,66,30.05,10.0,SW,6.9,-,N/A,,Overcast,220,2013-01-03 13:55:00
9:14 AM,19.4,10.2,68,30.05,10.0,SW,6.9,-,N/A,,Overcast,220,2013-01-03 14:14:00
9:35 AM,20.5,11.3,68,30.05,10.0,SW,6.9,-,N/A,,Overcast,230,2013-01-03 14:35:00
9:55 AM,21.6,12.7,69,30.05,10.0,SW,10.4,-,N/A,,Overcast,230,2013-01-03 14:55:00
10:14 AM,21.9,13.5,70,30.05,7.0,WSW,9.2,-,N/A,,Overcast,240,2013-01-03 15:14:00
10:35 AM,22.1,14.2,72,30.05,7.0,SW,9.2,-,N/A,,Overcast,230,2013-01-03 15:35:00
10:54 AM,22.8,15.4,73,30.06,7.0,SW,8.1,-,N/A,,Overcast,230,2013-01-03 15:54:00
11:14 AM,23.4,16.3,75,30.05,5.0,SW,8.1,-,N/A,,Haze,220,2013-01-03 16:14:00
11:35 AM,24.6,18.0,76,30.04,5.0,SW,10.4,17.3,N/A,,Haze,230,2013-01-03 16:35:00
11:54 AM,25.3,18.9,76,30.03,5.0,WSW,9.2,-,N/A,,Haze,240,2013-01-03 16:54:00
12:15 PM,25.9,19.4,76,30.02,5.0,WSW,9.2,-,N/A,,Haze,240,2013-01-03 17:15:00
12:35 PM,26.4,20.1,77,30.03,5.0,WSW,9.2,-,N/A,,Haze,250,2013-01-03 17:35:00
12:54 PM,27.0,20.7,77,30.03,5.0,West,12.7,-,N/A,,Haze,260,2013-01-03 17:54:00
1:15 PM,27.1,21.2,78,30.02,4.0,West,12.7,16.1,N/A,,Haze,260,2013-01-03 18:15:00
1:34 PM,27.5,21.7,79,30.02,5.0,West,12.7,16.1,N/A,,Haze,260,2013-01-03 18:34:00
1:55 PM,27.5,22.1,80,30.02,4.0,WSW,13.8,-,N/A,,Haze,250,2013-01-03 18:55:00
2:15 PM,28.0,22.3,79,30.02,4.0,WSW,10.4,-,N/A,,Haze,250,2013-01-03 19:15:00
2:34 PM,28.0,22.6,80,30.02,4.0,WSW,16.1,-,N/A,,Haze,250,2013-01-03 19:34:00
2:55 PM,28.0,22.8,81,30.03,4.0,WSW,10.4,-,N/A,,Haze,240,2013-01-03 19:55:00
3:14 PM,28.0,23.0,81,30.04,4.0,West,10.4,-,N/A,,Haze,260,2013-01-03 20:14:00
3:34 PM,28.2,23.4,82,30.04,3.0,WSW,10.4,-,N/A,,Haze,250,2013-01-03 20:34:00
3:55 PM,28.2,23.4,82,30.05,3.0,WSW,10.4,16.1,N/A,,Haze,250,2013-01-03 20:55:00
4:14 PM,28.4,23.7,83,30.05,3.0,WSW,13.8,-,N/A,,Overcast,240,2013-01-03 21:14:00
4:35 PM,28.4,23.9,83,30.06,3.0,WSW,11.5,19.6,N/A,,Overcast,240,2013-01-03 21:35:00
4:54 PM,28.4,23.9,83,30.06,3.0,WSW,15.0,19.6,N/A,,Overcast,250,2013-01-03 21:54:00
5:14 PM,28.4,23.9,83,30.07,4.0,WSW,9.2,-,N/A,,Overcast,250,2013-01-03 22:14:00
5:35 PM,28.8,23.9,82,30.08,4.0,WSW,10.4,16.1,N/A,Snow,Light Snow,250,2013-01-03 22:35:00
5:54 PM,28.9,24.3,83,30.09,5.0,West,11.5,-,N/A,,Haze,260,2013-01-03 22:54:00
6:14 PM,28.9,23.9,81,30.09,5.0,West,10.4,-,N/A,,Haze,260,2013-01-03 23:14:00
6:35 PM,29.1,23.9,81,30.10,5.0,West,11.5,-,N/A,,Haze,270,2013-01-03 23:35:00
6:54 PM,29.3,23.5,79,30.11,5.0,West,12.7,-,N/A,,Haze,280,2013-01-03 23:54:00
7:14 PM,29.3,23.0,77,30.11,7.0,West,15.0,20.7,N/A,,Overcast,280,2013-01-04 00:14:00
7:35 PM,29.1,22.6,77,30.12,7.0,West,11.5,19.6,N/A,,Overcast,270,2013-01-04 00:35:00
7:54 PM,28.9,22.3,76,30.12,7.0,West,12.7,18.4,N/A,,Overcast,280,2013-01-04 00:54:00
8:14 PM,28.9,22.5,77,30.13,7.0,West,10.4,-,N/A,,Overcast,280,2013-01-04 01:14:00
8:35 PM,28.8,22.1,76,30.13,7.0,West,10.4,-,N/A,,Overcast,280,2013-01-04 01:35:00
8:54 PM,28.6,21.7,76,30.13,7.0,West,9.2,-,N/A,,Overcast,280,2013-01-04 01:54:00
9:15 PM,28.6,21.6,75,30.13,7.0,West,12.7,-,N/A,,Overcast,280,2013-01-04 02:15:00
9:35 PM,28.6,21.0,73,30.13,7.0,West,10.4,-,N/A,,Overcast,270,2013-01-04 02:35:00
9:54 PM,28.8,20.3,71,30.13,10.0,West,10.4,16.1,N/A,,Overcast,260,2013-01-04 02:54:00
10:15 PM,28.8,20.3,71,30.12,10.0,West,10.4,-,N/A,,Overcast,270,2013-01-04 03:15:00
10:34 PM,28.8,20.3,71,30.11,10.0,WSW,6.9,-,N/A,,Overcast,250,2013-01-04 03:34:00
10:54 PM,28.2,20.3,72,30.12,10.0,WSW,8.1,-,N/A,,Overcast,240,2013-01-04 03:54:00
11:15 PM,28.2,21.7,77,30.11,7.0,WSW,6.9,-,N/A,,Overcast,240,2013-01-04 04:15:00
11:34 PM,28.2,22.1,78,30.10,7.0,SW,9.2,-,N/A,,Overcast,230,2013-01-04 04:34:00
11:54 PM,28.2,22.1,78,30.10,7.0,SW,8.1,-,N/A,,Overcast,230,2013-01-04 04:54:00